Location: N�rnberg
(49.4489°N, 11.0797°E)
Time: 14:00:51
(UTC+02:00)

ISS - Pass Details

Date: 28 March 2017
Orbit: 400 x 409 km, 51.6° (Epoch: 23 April)

Event Time Altitude Azimuth Distance (km) Brightness Sun altitude
Rises 22:28:52 0° 251° (WSW) 2,316 0.4 -25.5°
Reaches altitude 10° 22:30:56 10° 251° (WSW) 1,460 -0.7 -25.8°
Enters shadow 22:31:06 11° 251° (WSW) 1,395 -0.8 -25.8°
